This is the latest recevied weather packets stored in our database for station/object N1TKS. If no packets are shown the sender has not sent any weather packets the latest 1 day(s).
| Time | Temp. | Humidity | Pressure | Rain* | Wind** | Luminosity | Snow |
|---|---|---|---|---|---|---|---|
| 1778015007 | 22.22° C | 59% | 1008 hPa | 0 mm | 1.34 m/s, 173° | - | - |
| 1778014914 | 22.22° C | 59% | 1008 hPa | 0 mm | 1.34 m/s, 173° | - | - |
| 1778014412 | 22.22° C | 59% | 1008.1 hPa | 0 mm | 0.45 m/s, 197° | - | - |
| 1778014314 | 22.22° C | 59% | 1008.1 hPa | 0 mm | 0.45 m/s, 197° | - | - |
| 1778014014 | 22.22° C | 59% | 1008.1 hPa | 0 mm | 0.45 m/s, 207° | - | - |
| 1778013713 | 22.22° C | 59% | 1008.2 hPa | 0 mm | 0.89 m/s, 205° | - | - |
| 1778013454 | 22.78° C | 58% | 1008.2 hPa | 0 mm | 0 m/s | - | - |
| 1778013413 | 22.78° C | 58% | 1008.2 hPa | 0 mm | 0 m/s | - | - |
| 1778012815 | 22.78° C | 59% | 1008.4 hPa | 0 mm | 0.45 m/s, 45° | - | - |
| 1778012363 | 22.78° C | 58% | 1008.4 hPa | 0 mm | 0.89 m/s, 236° | - | - |
| 1778012363 | 22.78° C | 59% | 1008.4 hPa | 0 mm | 0.45 m/s, 244° | - | - |
| 1778012213 | 22.78° C | 58% | 1008.4 hPa | 0 mm | 0.89 m/s, 236° | - | - |
| 1778011927 | 22.78° C | 59% | 1008.4 hPa | 0 mm | 0.45 m/s, 244° | - | - |
| 1778011656 | 22.78° C | 59% | 1008.4 hPa | 0 mm | 1.34 m/s, 207° | - | - |
| 1778011613 | 22.78° C | 59% | 1008.4 hPa | 0 mm | 1.34 m/s, 207° | - | - |
| 1778011322 | 22.78° C | 59% | 1008.6 hPa | 0 mm | 0.89 m/s, 167° | - | - |
| 1778011050 | 22.78° C | 58% | 1008.7 hPa | 0 mm | 0.45 m/s, 200° | - | - |
| 1778011018 | 22.78° C | 58% | 1008.7 hPa | 0 mm | 0.45 m/s, 200° | - | - |
| 1778010415 | 22.22° C | 60% | 1008.8 hPa | 0 mm | 0.45 m/s, 56° | - | - |
| 1778010410 | 22.22° C | 59% | 1009 hPa | 0 mm | 0 m/s | - | - |
| 1778009814 | 22.22° C | 59% | 1009 hPa | 0 mm | 0 m/s | - | - |
| 1778008314 | 22.78° C | 59% | 1009.2 hPa | 0 mm | 0.89 m/s, 202° | - | - |
| 1778008016 | 22.78° C | 59% | 1009.4 hPa | 0 mm | 0.45 m/s, 235° | - | - |
| 1778007114 | 22.78° C | 57% | 1009.5 hPa | 0 mm | 0.89 m/s, 203° | - | - |
| 1778006514 | 23.33° C | 57% | 1009.6 hPa | 0 mm | 0.89 m/s, 213° | - | - |
* Rain latest hour (hover to see other rain measurements)
** Current wind speed in m/s (hover to see current wind gust speed)